Regional Weather Roundup
Issued by NWS

Home | Current Version | Previous Version | Text Only | Print | Product List | Glossary Off
Versions: 1 2 3 4 5 6 7 8 9 10 11 12 13 14 15 16 17 18 19 20 21 22 23 24 25 26 27

000
ASUS45 KTFX 220010
RWRMT
MONTANA REGIONAL WEATHER ROUNDUP
NATIONAL WEATHER SERVICE GREAT FALLS MT
500 PM MST SAT JAN 21 2017

NOTE: "FAIR" INDICATES FEW OR NO CLOUDS BELOW 12000 FEET WITH NO
SIGNIFICANT WEATHER AND/OR OBSTRUCTIONS TO VISIBILITY.

MTZ001>007-043-220100-
WEST OF THE DIVIDE

CITY           SKY/WX    TMP DP  RH WIND       PRES   REMARKS
KALISPELL      LGT SNOW  28  25  88 CALM      29.63R FOG
MISSOULA       MOCLDY    26  24  92 CALM      29.64R FOG
BUTTE          CLOUDY    30  19  63 NW3       29.56R
MULLAN PASS    FOG       26  24  92 CALM      29.51R VSB 1/2
ANACONDA         N/A     27  18  69 CALM      29.59R
DEER LODGE       N/A     19  14  79 CALM      29.61R
EUREKA           N/A     27  25  93 CALM      29.65R
HAMILTON         N/A     27  23  86 CALM      29.62R
PLAINS           N/A     27  22  81 CALM      29.66R
RONAN            N/A     26  24  92 CALM      29.68S
$$

MTZ008-052>055-220100-
SOUTHWEST MONTANA

CITY           SKY/WX    TMP DP  RH WIND       PRES   REMARKS
BOZEMAN        CLOUDY    22  15  75 NE5       29.58R
DILLON         CLOUDY    32  18  56 CALM      29.57R
W YELLOWSTONE  CLOUDY    25  23  93 SW10G17   29.57R WCI  15
ENNIS          CLOUDY    32  23  69 SE10      29.61R WCI  24
TWIN BRIDGES     N/A     25  14  62 E1        29.63R
$$

MTZ009-010-012-014-046-048-049-054-220100-
EAST SLOPES AND CENTRAL MONTANA

CITY           SKY/WX    TMP DP  RH WIND       PRES   REMARKS
CUT BANK       MOCLDY    30  23  75 N8        29.54R WCI  22
GREAT FALLS    CLEAR     29  21  72 W5        29.55R
MALMSTROM AFB  CLEAR     33  23  67 W5        29.56R
HELENA         CLOUDY    20  13  74 CALM      29.59R
CHOTEAU          N/A     32  25  74 CALM      29.57R
CONRAD           N/A     32  26  78 CALM      29.61R
$$

MTZ011-013-016-021-045-047-050-051-220100-
NORTH CENTRAL MONTANA

CITY           SKY/WX    TMP DP  RH WIND       PRES   REMARKS
HAVRE          CLEAR     29  25  85 SW12      29.55R WCI  19
LEWISTOWN      CLOUDY    28  21  75 W8        29.53R WCI  20
CHINOOK          N/A     30  27  86 NW7       29.55R WCI  23
FORT BENTON      N/A     34  25  69 MISG      29.57R
$$

MTZ017>020-022>027-061-062-220100-
NORTHEAST MONTANA

CITY           SKY/WX    TMP DP  RH WIND       PRES   REMARKS
GLASGOW        CLEAR     27  21  78 S3        29.49R
JORDAN           N/A     35  25  66 NW10      29.50R WCI  27
SIDNEY         CLEAR     27  23  85 CALM      29.50R
WOLF POINT     CLEAR     23  17  78 SW8       29.51R WCI  14
PLENTYWOOD       N/A     30  28  93 W15       29.47R WCI  19
POPLAR           N/A     21  18  86 W9        29.52R WCI  11
SCOBEY           N/A     29  22  75 W13       29.50R WCI  19
$$

MTZ028>42-056>058-220100-
SOUTHCENTRAL AND SOUTHEAST MONTANA

CITY           SKY/WX    TMP DP  RH WIND       PRES   REMARKS
BAKER          CLEAR     22  20  92 W6        29.51R WCI  14
BILLINGS       MOCLDY    32  22  66 SW14      29.53R WCI  22
LIVINGSTON     CLOUDY    30  17  58 NW3       29.53R
MILES CITY     PTCLDY    20  17  88 SE6       29.53R FOG     WCI  12
BIG TIMBER     MOCLDY    34  18  51 W16       29.54R WCI  23
EKALAKA          N/A     28  22  78 CALM      29.53R
FORSYTH          N/A     25  21  86 CALM      29.53R
LAUREL           N/A     29  19  66 CALM      29.56R
$$

REGIONAL REPORTS...DAKOTAS

CITY           SKY/WX    TMP DP  RH WIND       PRES   REMARKS
WILLISTON      CLOUDY    30  27  88 NW9       29.49R WCI  22
MINOT          CLOUDY    28  24  85 W6        29.45R WCI  22
DICKINSON      CLEAR     27  22  81 W15       29.44R WCI  15
BEACH            N/A     25  23  93 W7        29.52R WCI  17
CROSBY         CLOUDY    30  30 100 NW3       29.47R FOG
TIOGA          CLOUDY    28  28 100 W12       29.46R WCI  18
WATFORD CITY     N/A     25  23  93 SW5       29.49R
BISMARCK       CLOUDY    30  28  92 SW3       29.48R
GRAND FORKS    LGT RAIN  36  33  89 NE3       29.50R FOG
FARGO          CLOUDY    37  34  89 CALM      29.49R
BUFFALO SD       N/A     32  26  78 NW7       29.44R WCI  26
RAPID CITY     CLEAR     31  26  82 NW6       29.51R WCI  25
$$

REGIONAL REPORTS...WYOMING/IDAHO/WASHINGTON

CITY           SKY/WX    TMP DP  RH WIND       PRES   REMARKS
GILLETTE       CLOUDY    33  27  78 CALM      29.50R
SHERIDAN       CLOUDY    26  20  77 S5        29.52R
BUFFALO WY     CLOUDY    31  22  69 N7        29.51R WCI  24
CODY           CLOUDY    23  16  74 NW3       29.54R
YELLOWSTONE LA   N/A     23  19  85 VRB3      29.57R
IDAHO FALLS    CLOUDY    30  28  92 SW13G21   29.66R WCI  20
SALMON         CLOUDY    19  16  86 CALM      29.65R
BOISE          CLOUDY    38  32  79 SE7       29.70R
SPOKANE        MOCLDY    38  32  79 E6        29.57R
$$

REGIONAL REPORTS...ALBERTA

CITY           SKY/WX    TMP DP  RH WIND       PRES   REMARKS
EDMONTON       CLOUDY    21  18  86 N6        29.70R VSB 3/8 WCI  14
CALGARY        PTCLDY    28  23  80 N10       29.58R WCI  19
LETHBRIDGE     MOCLDY    30  25  80 NW6       29.57R WCI  24
MEDICINE HAT   FOG       27  27 100 W7        29.58R VSB 1/2 WCI  19
WATERTON GATE    N/A     30  18  59 E5          N/A
MILK RIVER       N/A     28  23  80 NW10        N/A  WCI  19
$$

REGIONAL REPORTS...SASKATCHEWAN

CITY           SKY/WX    TMP DP  RH WIND       PRES   REMARKS
SWIFT CURRENT  FRZ RAIN  27  27 100 NW12      29.48R VSB 1/8 WCI  16
REGINA         FLURRIES  25  23  93 NW9       29.46R WCI  15
SASKATOON      FLURRIES  28  27  93 N5        29.52R
CYPRESS HILLS    N/A     27  25  93 NW9         N/A  WCI  17
VAL MARIE        N/A     30  25  80 N10         N/A  WCI  21
ROCKGLEN         N/A     27  27 100 NW12G17     N/A  WCI  16
ASSINIBOIA       N/A     25  23  93 N7          N/A  WCI  17
$$




USA.gov is the U.S. government's official web portal to all federal, state and local government web resources and services.